This is the latest recevied weather packets stored in our database for station/object EA1GEC-10. If no packets are shown the sender has not sent any weather packets the latest 10 day(s).
| Time | Temp. | Humidity | Pressure | Rain* | Wind** | Luminosity | Snow |
|---|---|---|---|---|---|---|---|
| 1778351767 | 11.67° C | 73% | 1014.5 hPa | - | - | - | - |
| 1778350867 | 11.67° C | 73% | 1014.7 hPa | - | - | - | - |
| 1778349967 | 12.22° C | 73% | 1014.7 hPa | - | - | - | - |
| 1778349067 | 12.22° C | 73% | 1014.1 hPa | - | - | - | - |
| 1778348167 | 12.22° C | 73% | 1014 hPa | - | - | - | - |
| 1778347267 | 12.22° C | 72% | 1013.9 hPa | - | - | - | - |
| 1778346367 | 12.22° C | 71% | 1013.5 hPa | - | - | - | - |
| 1778345467 | 12.78° C | 70% | 1013.4 hPa | - | - | - | - |
| 1778344567 | 13.33° C | 69% | 1013.2 hPa | - | - | - | - |
| 1778342766 | 13.33° C | 68% | 1013 hPa | - | - | - | - |
| 1778341866 | 14.44° C | 68% | 1013 hPa | - | - | - | - |
| 1778340966 | 13.89° C | 68% | 1013.1 hPa | - | - | - | - |
| 1778340066 | 14.44° C | 68% | 1013.2 hPa | - | - | - | - |
| 1778339166 | 15.56° C | 68% | 1013.3 hPa | - | - | - | - |
| 1778338266 | 15.56° C | 68% | 1013.5 hPa | - | - | - | - |
| 1778337366 | 15° C | 68% | 1013.8 hPa | - | - | - | - |
| 1778336466 | 15.56° C | 69% | 1013.6 hPa | - | - | - | - |
| 1778335575 | 14.44° C | 72% | 1013.9 hPa | - | - | - | - |
| 1778332856 | 12.22° C | 72% | 1014.3 hPa | - | - | - | - |
| 1778331955 | 12.78° C | 71% | 1014 hPa | - | - | - | - |
| 1778331055 | 13.33° C | 71% | 1013.7 hPa | - | - | - | - |
| 1778330155 | 13.33° C | 68% | 1013.7 hPa | - | - | - | - |
| 1778329255 | 15° C | 67% | 1013.7 hPa | - | - | - | - |
| 1778328355 | 15° C | 67% | 1014 hPa | - | - | - | - |
| 1778327455 | 14.44° C | 66% | 1014 hPa | - | - | - | - |
* Rain since midnight (hover to see other rain measurements)
** Current wind speed in m/s (hover to see current wind gust speed)